Weather History for KPRN - May, 2013

Change the Weather History Date:

Sunday, May 19, 2013

  Actual Average Record
Temperature  
Mean Temperature 76 °F -  
Max Temperature 84 °F 84 °F 98 °F (1951)
Min Temperature 68 °F 61 °F 47 °F (1973)
Cooling Degree Days 11    
Growing Degree Days 26 (Base 50)    
Moisture  
Dew Point 68 °F    
Average Humidity 80    
Maximum Humidity 96    
Minimum Humidity 55    
Precipitation  
Precipitation 0.00 in - - ()
Sea Level Pressure  
Sea Level Pressure 30.04 in    
Wind  
Wind Speed 4 mph (South)    
Max Wind Speed 12 mph    
Max Gust Speed -    
Visibility 9 miles    
Events      
Averages and records for this station are not official NWS values.
T = Trace of Precipitation, MM = Missing Value Source: NWS Daily Summary

Daily Weather History Graph

Daily Weather History Graph

Search for Another Location

Airport or City:

Trip Planner

Search our weather history database for the weather conditions in past years. The results will help you decide how hot, cold, wet, or windy it might be!

Date:

Astronomy

May. 19, 2013 Rise Set
Actual Time 5:46 AM CDT 7:39 PM CDT
Civil Twilight 5:19 AM CDT 8:06 PM CDT
Nautical Twilight 4:47 AM CDT 8:39 PM CDT
Astronomical Twilight 4:12 AM CDT 9:14 PM CDT
Moon 2:03 PM CDT (5/19) 1:48 AM CDT (5/19)
Length of Visible Light 14h 46m
Length of Day
13h 52m
Waxing Gibbous, 65% of the Moon is Illuminated
May 19
Waxing Gibbous
May 24
Full
May 31
Last Quarter
Jun 8
New
Jun 16
First Quarter

Hourly Weather History & Observations

Time (CDT) Temp. Heat Index Dew Point Humidity Pressure Visibility Wind Dir Wind Speed Gust Speed Precip Events Conditions
12:56 AM 71.1 °F - 66.9 °F 87% 30.03 in 10.0 mi South 6.9 mph - N/A   Clear
1:12 AM 69.8 °F - 66.2 °F 88% 30.04 in 10.0 mi SSW 5.8 mph - N/A   Scattered Clouds
1:56 AM 70.0 °F - 66.9 °F 90% 30.01 in 10.0 mi SSW 4.6 mph - N/A   Clear
2:56 AM 69.1 °F - 66.9 °F 93% 30.00 in 7.0 mi South 3.5 mph - N/A   Clear
3:37 AM 68.0 °F - 66.2 °F 94% 30.02 in 5.0 mi Calm Calm - N/A   Scattered Clouds
3:46 AM 68.0 °F - 66.2 °F 94% 30.02 in 6.0 mi Calm Calm - N/A   Mostly Cloudy
3:56 AM 68.0 °F - 66.0 °F 93% 30.01 in 5.0 mi Calm Calm - N/A   Overcast
4:29 AM 69.8 °F - 68.0 °F 94% 30.04 in 1.8 mi SSW 5.8 mph - N/A   Overcast
4:56 AM 69.1 °F - 68.0 °F 96% 30.03 in 1.2 mi SW 4.6 mph - N/A   Overcast
5:07 AM 69.8 °F - 66.2 °F 88% 30.04 in 3.0 mi SW 5.8 mph - N/A   Overcast
5:28 AM 69.8 °F - 66.2 °F 88% 30.04 in 6.0 mi SSW 4.6 mph - N/A   Overcast
5:56 AM 69.1 °F - 66.9 °F 93% 30.04 in 7.0 mi SSW 4.6 mph - N/A   Overcast
6:56 AM 70.0 °F - 66.9 °F 90% 30.06 in 6.0 mi Calm Calm - N/A   Overcast
7:56 AM 72.0 °F - 66.9 °F 84% 30.06 in 10.0 mi WSW 4.6 mph - N/A   Overcast
8:56 AM 73.9 °F - 66.0 °F 76% 30.06 in 10.0 mi South 3.5 mph - N/A   Overcast
9:39 AM 75.2 °F - 66.2 °F 73% 30.08 in 10.0 mi Variable 3.5 mph - N/A   Overcast
9:56 AM 77.0 °F - 66.9 °F 71% 30.06 in 10.0 mi South 6.9 mph - N/A   Mostly Cloudy
10:05 AM 77.0 °F - 66.2 °F 69% 30.07 in 10.0 mi Calm Calm - N/A   Partly Cloudy
10:35 AM 78.8 °F - 66.2 °F 65% 30.07 in 10.0 mi South 4.6 mph - N/A   Mostly Cloudy
10:53 AM 78.8 °F - 66.2 °F 65% 30.07 in 10.0 mi SSE 8.1 mph - N/A   Scattered Clouds
10:56 AM 78.1 °F - 66.9 °F 68% 30.06 in 10.0 mi Variable 5.8 mph - N/A   Scattered Clouds
11:56 AM 80.1 °F 82.3 °F 66.9 °F 64% 30.04 in 10.0 mi SSW 11.5 mph - N/A   Partly Cloudy
2:56 PM 84.0 °F 86.3 °F 66.0 °F 55% 30.03 in 10.0 mi Calm Calm - N/A   Scattered Clouds
3:56 PM 82.9 °F 85.8 °F 68.0 °F 60% 30.01 in 10.0 mi SSE 3.5 mph - N/A   Mostly Cloudy
4:56 PM 82.9 °F 85.8 °F 68.0 °F 60% 30.00 in 10.0 mi Variable 3.5 mph - N/A   Clear
5:56 PM 82.9 °F 86.5 °F 69.1 °F 63% 29.98 in 10.0 mi SSE 4.6 mph - N/A   Clear
6:56 PM 81.0 °F 84.1 °F 69.1 °F 67% 29.99 in 10.0 mi South 3.5 mph - N/A   Clear
7:56 PM 80.1 °F 83.2 °F 70.0 °F 71% 30.01 in 10.0 mi Calm Calm - N/A   Partly Cloudy
8:56 PM 75.9 °F - 71.1 °F 85% 30.04 in 10.0 mi Calm Calm - N/A   Clear
9:56 PM 73.9 °F - 70.0 °F 87% 30.06 in 10.0 mi East 3.5 mph - N/A   Scattered Clouds
10:44 PM 75.2 °F - 69.8 °F 83% 30.07 in 10.0 mi Calm Calm - N/A   Mostly Cloudy
10:51 PM 75.2 °F - 69.8 °F 83% 30.06 in 10.0 mi South 3.5 mph - N/A   Mostly Cloudy
10:56 PM 73.9 °F - 70.0 °F 87% 30.06 in 10.0 mi South 5.8 mph - N/A   Scattered Clouds
11:07 PM 75.2 °F - 69.8 °F 83% 30.06 in 10.0 mi South 5.8 mph - N/A   Mostly Cloudy
11:15 PM 75.2 °F - 69.8 °F 83% 30.06 in 10.0 mi South 4.6 mph - N/A   Mostly Cloudy
11:33 PM 75.2 °F - 71.6 °F 89% 30.06 in 10.0 mi East 6.9 mph - N/A   Mostly Cloudy
11:56 PM 75.0 °F - 70.0 °F 84% 30.05 in 10.0 mi East 5.8 mph - N/A   Overcast